• In Hungary
  • List of Countries
  • For 7 days
  • Water Temperature
  • Satellite Maps
  • Weather Map
  • News
  • Weather Widgets
  • user-avatar
    Login

    Hourly Weather Pazardzhik

    Today, 19 October, Thursday

    Time Temperature Precipitation Wind Pressure Humidity
    00:00 +18°C° 0 mm 1 mps 746 mmHg 60%
    01:00 +18°C° 0 mm 1 mps 745 mmHg 61%
    02:00 +18°C° 0 mm 1 mps 745 mmHg 62%
    03:00 +16°C° 0 mm 1 mps 745 mmHg 62%
    04:00 +16°C° 0 mm 1 mps 745 mmHg 62%
    05:00 +16°C° 0 mm 1 mps 745 mmHg 62%
    06:00 +18°C° 0 mm 1 mps 745 mmHg 60%
    07:00 +18°C° 0 mm 1 mps 745 mmHg 59%
    08:00 +20°C° 0 mm 1 mps 745 mmHg 54%
    09:00 +22°C° 0 mm 1 mps 745 mmHg 48%
    10:00 +24°C° 0 mm 1 mps 745 mmHg 42%
    11:00 +26°C° 0 mm 1 mps 745 mmHg 37%
    12:00 +27°C° 0 mm 1 mps 745 mmHg 35%
    13:00 +27°C° 0 mm 1 mps 744 mmHg 34%
    14:00 +27°C° 0 mm 2 mps 744 mmHg 32%
    15:00 +26°C° 0 mm 1 mps 744 mmHg 37%
    16:00 +25°C° 0 mm 1 mps 744 mmHg 41%
    17:00 +23°C° 0 mm 1 mps 744 mmHg 46%
    18:00 +22°C° 0 mm 1 mps 744 mmHg 49%
    19:00 +21°C° 0 mm 1 mps 744 mmHg 51%
    20:00 +19°C° 0 mm 1 mps 744 mmHg 54%
    21:00 +19°C° 0 mm 1 mps 744 mmHg 55%
    22:00 +18°C° 0 mm 1 mps 744 mmHg 56%
    23:00 +18°C° 0 mm 1 mps 744 mmHg 57%

    Tomorrow, 20 October, Friday

    Time Temperature Precipitation Wind Pressure Humidity
    00:00 +18°C° 0 mm 1 mps 744 mmHg 57%
    01:00 +18°C° 0 mm 1 mps 744 mmHg 57%
    02:00 +16°C° 0 mm 1 mps 744 mmHg 57%
    03:00 +16°C° 0 mm 1 mps 744 mmHg 57%
    04:00 +16°C° 0 mm 1 mps 744 mmHg 57%
    05:00 +16°C° 0 mm 1 mps 744 mmHg 57%
    06:00 +18°C° 0 mm 1 mps 744 mmHg 56%
    07:00 +18°C° 0 mm 1 mps 744 mmHg 55%
    08:00 +19°C° 0 mm 1 mps 745 mmHg 53%
    09:00 +21°C° 0 mm 1 mps 745 mmHg 47%
    10:00 +24°C° 0 mm 1 mps 745 mmHg 41%
    11:00 +26°C° 0 mm 1 mps 745 mmHg 35%
    12:00 +26°C° 0 mm 1 mps 745 mmHg 33%
    13:00 +27°C° 0 mm 1 mps 745 mmHg 32%
    14:00 +27°C° 0 mm 1 mps 744 mmHg 31%
    15:00 +26°C° 0 mm 1 mps 744 mmHg 36%
    16:00 +25°C° 0 mm 1 mps 744 mmHg 40%
    17:00 +23°C° 0 mm 1 mps 744 mmHg 44%
    18:00 +22°C° 0 mm 1 mps 744 mmHg 47%
    19:00 +21°C° 0 mm 1 mps 744 mmHg 50%
    20:00 +19°C° 0 mm 1 mps 745 mmHg 53%
    21:00 +19°C° 0 mm 1 mps 745 mmHg 54%
    22:00 +19°C° 0 mm 1 mps 745 mmHg 55%
    23:00 +18°C° 0 mm 1 mps 745 mmHg 56%

    Day after tomorrow, 21 October, Saturday

    Time Temperature Precipitation Wind Pressure Humidity
    00:00 +18°C° 0 mm 1 mps 745 mmHg 56%
    01:00 +18°C° 0 mm 1 mps 745 mmHg 57%
    02:00 +18°C° 0 mm 1 mps 745 mmHg 57%
    03:00 +16°C° 0 mm 1 mps 745 mmHg 58%
    04:00 +16°C° 0 mm 1 mps 745 mmHg 59%
    05:00 +16°C° 0 mm 2 mps 744 mmHg 60%
    06:00 +18°C° 0 mm 1 mps 745 mmHg 59%
    07:00 +18°C° 0 mm 1 mps 745 mmHg 58%
    08:00 +19°C° 0 mm 1 mps 745 mmHg 58%
    09:00 +21°C° 0 mm 1 mps 745 mmHg 51%
    10:00 +23°C° 0 mm 1 mps 745 mmHg 44%
    11:00 +25°C° 0 mm 1 mps 745 mmHg 37%
    12:00 +26°C° 0 mm 1 mps 745 mmHg 36%
    13:00 +26°C° 0 mm 1 mps 744 mmHg 34%
    14:00 +27°C° 0 mm 2 mps 744 mmHg 33%
    15:00 +25°C° 0 mm 1 mps 744 mmHg 38%
    16:00 +24°C° 0 mm 1 mps 744 mmHg 42%
    17:00 +23°C° 0 mm 1 mps 743 mmHg 47%
    18:00 +21°C° 0 mm 1 mps 744 mmHg 50%
    19:00 +20°C° 0 mm 1 mps 744 mmHg 53%
    20:00 +19°C° 0 mm 1 mps 744 mmHg 56%
    21:00 +18°C° 0 mm 1 mps 744 mmHg 58%
    22:00 +18°C° 0 mm 1 mps 744 mmHg 59%
    23:00 +18°C° 0 mm 1 mps 744 mmHg 60%

    22 October, Sunday

    Time Temperature Precipitation Wind Pressure Humidity
    00:00 +16°C° 0 mm 1 mps 744 mmHg 61%
    01:00 +16°C° 0 mm 1 mps 744 mmHg 62%
    02:00 +16°C° 0 mm 2 mps 744 mmHg 63%
    03:00 +16°C° 0 mm 2 mps 744 mmHg 63%
    04:00 +15°C° 0 mm 1 mps 744 mmHg 64%
    05:00 +15°C° 0 mm 1 mps 744 mmHg 65%
    06:00 +16°C° 0 mm 1 mps 744 mmHg 63%
    07:00 +16°C° 0 mm 1 mps 744 mmHg 62%
    08:00 +18°C° 0 mm 1 mps 744 mmHg 60%
    09:00 +20°C° 0 mm 1 mps 744 mmHg 53%
    10:00 +22°C° 0 mm 1 mps 744 mmHg 46%
    11:00 +25°C° 0 mm 1 mps 744 mmHg 39%
    12:00 +25°C° 0 mm 1 mps 743 mmHg 38%
    13:00 +25°C° 0 mm 1 mps 743 mmHg 36%
    14:00 +26°C° 0 mm 1 mps 742 mmHg 35%
    15:00 +25°C° 0 mm 1 mps 742 mmHg 39%
    16:00 +23°C° 0 mm 1 mps 742 mmHg 44%
    17:00 +22°C° 0 mm 1 mps 741 mmHg 49%
    18:00 +21°C° 0 mm 1 mps 742 mmHg 52%
    19:00 +19°C° 0 mm 1 mps 742 mmHg 55%
    20:00 +18°C° 0 mm 1 mps 742 mmHg 59%
    21:00 +18°C° 0 mm 1 mps 742 mmHg 60%
    22:00 +16°C° 0 mm 1 mps 742 mmHg 61%
    23:00 +16°C° 0 mm 1 mps 741 mmHg 62%

    23 October, Monday

    Time Temperature Precipitation Wind Pressure Humidity
    00:00 +16°C° 0 mm 1 mps 741 mmHg 63%
    01:00 +16°C° 0 mm 1 mps 741 mmHg 64%
    02:00 +15°C° 0 mm 1 mps 741 mmHg 65%
    03:00 +15°C° 0 mm 1 mps 740 mmHg 67%
    04:00 +15°C° 0 mm 1 mps 740 mmHg 68%
    05:00 +15°C° 0 mm 1 mps 740 mmHg 69%
    06:00 +15°C° 0 mm 1 mps 740 mmHg 69%
    07:00 +15°C° 0 mm 1 mps 739 mmHg 69%
    08:00 +16°C° 0 mm 1 mps 739 mmHg 69%
    09:00 +17°C° 0 mm 2 mps 739 mmHg 63%
    10:00 +18°C° 0 mm 2 mps 739 mmHg 58%
    11:00 +20°C° 0 mm 2 mps 739 mmHg 53%
    12:00 +20°C° 0 mm 2 mps 738 mmHg 52%
    13:00 +20°C° 0 mm 3 mps 738 mmHg 52%
    14:00 +21°C° 0 mm 3 mps 737 mmHg 52%
    15:00 +20°C° 0 mm 3 mps 737 mmHg 56%
    16:00 +19°C° 0 mm 2 mps 737 mmHg 60%
    17:00 +19°C° 0 mm 2 mps 737 mmHg 63%
    18:00 +18°C° 0 mm 2 mps 737 mmHg 67%
    19:00 +17°C° 0 mm 2 mps 737 mmHg 71%
    20:00 +16°C° 0 mm 2 mps 738 mmHg 75%
    21:00 +15°C° 0 mm 2 mps 738 mmHg 79%
    22:00 +15°C° 0 mm 2 mps 738 mmHg 83%
    23:00 +15°C° 0 mm 2 mps 738 mmHg 88%

    24 October, Tuesday

    Time Temperature Precipitation Wind Pressure Humidity
    00:00 +14°C° 0.1 mm 3 mps 738 mmHg 88%
    01:00 +14°C° 0.1 mm 3 mps 738 mmHg 89%
    02:00 +14°C° 0.1 mm 3 mps 738 mmHg 90%
    03:00 +13°C° 0.1 mm 3 mps 739 mmHg 90%
    04:00 +13°C° 0.1 mm 3 mps 739 mmHg 90%
    05:00 +13°C° 0.1 mm 3 mps 739 mmHg 90%
    06:00 +13°C° 0.6 mm 3 mps 739 mmHg 90%
    07:00 +13°C° 0.6 mm 3 mps 739 mmHg 90%
    08:00 +13°C° 0.6 mm 3 mps 740 mmHg 89%
    09:00 +14°C° 1.3 mm 3 mps 740 mmHg 87%
    10:00 +14°C° 1.3 mm 3 mps 741 mmHg 85%
    11:00 +14°C° 1.3 mm 3 mps 741 mmHg 84%
    12:00 +14°C° 0.6 mm 3 mps 741 mmHg 83%
    13:00 +16°C° 0.6 mm 3 mps 741 mmHg 83%
    14:00 +16°C° 0.6 mm 3 mps 741 mmHg 82%
    15:00 +14°C° 0.7 mm 3 mps 741 mmHg 83%
    16:00 +14°C° 0.7 mm 3 mps 741 mmHg 84%
    17:00 +14°C° 0.7 mm 3 mps 742 mmHg 84%
    18:00 +14°C° 0.2 mm 3 mps 742 mmHg 85%
    19:00 +13°C° 0.2 mm 3 mps 743 mmHg 85%
    20:00 +13°C° 0.2 mm 3 mps 743 mmHg 85%
    21:00 +13°C° 0.1 mm 3 mps 744 mmHg 86%
    22:00 +12°C° 0.1 mm 3 mps 744 mmHg 86%
    23:00 +12°C° 0.1 mm 3 mps 745 mmHg 86%
    Show more